Location: Quedlinburg
(51.7921°N, 11.1414°E)
Time: 05:14:44
(UTC+02:00)

STRAND 1 - Pass Details

Date: 23 March 2026
Orbit: 761 x 775 km, 98.4° (Epoch: 16 April)

Event Time Altitude Azimuth Distance (km) Brightness Sun altitude
Rises 02:54:46 0° 98° (E) 3,239 ? -28.2°
Reaches altitude 10° 02:58:42 10° 67° (ENE) 2,314 ? -27.8°
Maximum altitude 03:00:24 12° 48° (NE) 2,199 ? -27.6°
Drops below altitude 10° 03:02:06 10° 28° (NNE) 2,315 ? -27.4°
Sets 03:06:01 0° 358° (N) 3,244 ? -27.0°
